Tampa Weather Center

Moon Phase Calendar



Online Cameras

 


      

Current Conditions in St. Petersburg
7/1/2022 9:11:59 AM

82°F
Feels Like 88
Clear
Humidity
77%
Pressure
30.09"
Wind
6.9 mph (SE)
Dew Point
74°F
UV Index
2/10 (Low)
Visibility
6 mi

Hourly Forecast

Date & Time Fri, Jul 1
9:00 AM
Fri, Jul 1
10:00 AM
Fri, Jul 1
11:00 AM
Fri, Jul 1
12:00 PM
Fri, Jul 1
1:00 PM
Fri, Jul 1
2:00 PM
Fri, Jul 1
3:00 PM
Fri, Jul 1
4:00 PM
Fri, Jul 1
5:00 PM
Fri, Jul 1
6:00 PM
Fri, Jul 1
7:00 PM
Fri, Jul 1
8:00 PM
Fri, Jul 1
9:00 PM
Fri, Jul 1
10:00 PM
Fri, Jul 1
11:00 PM
Sat, Jul 2
12:00 AM
Sat, Jul 2
1:00 AM
Sat, Jul 2
2:00 AM
Sat, Jul 2
3:00 AM
Sat, Jul 2
4:00 AM
Sat, Jul 2
5:00 AM
Sat, Jul 2
6:00 AM
Sat, Jul 2
7:00 AM
Sat, Jul 2
8:00 AM
Sat, Jul 2
9:00 AM
Sat, Jul 2
10:00 AM
Sat, Jul 2
11:00 AM
Sat, Jul 2
12:00 PM
Sat, Jul 2
1:00 PM
Sat, Jul 2
2:00 PM
Sat, Jul 2
3:00 PM
Sat, Jul 2
4:00 PM
Sat, Jul 2
5:00 PM
Sat, Jul 2
6:00 PM
Sat, Jul 2
7:00 PM
Sat, Jul 2
8:00 PM
Sat, Jul 2
9:00 PM
Sat, Jul 2
10:00 PM
Sat, Jul 2
11:00 PM
Sun, Jul 3
12:00 AM
Sun, Jul 3
1:00 AM
Sun, Jul 3
2:00 AM
Sun, Jul 3
3:00 AM
Sun, Jul 3
4:00 AM
Sun, Jul 3
5:00 AM
Sun, Jul 3
6:00 AM
Sun, Jul 3
7:00 AM
Sun, Jul 3
8:00 AM
Condition
Rain

Clear

Clouds

Clouds

Rain

Rain

Rain

Clouds

Clouds

Clouds

Clouds

Clouds

Clouds

Rain

Rain

Rain

Rain

Clouds

Rain

Clouds

Clouds

Clouds

Clouds

Clouds

Clouds

Rain

Rain

Rain

Rain

Rain

Rain

Clouds

Clouds

Clouds

Clouds

Clouds

Rain

Rain

Rain

Rain

Clouds

Rain

Rain

Clouds

Rain

Clouds

Rain

Rain
Temperature 82°F82°F83°F84°F85°F86°F86°F87°F87°F87°F86°F86°F86°F86°F85°F84°F84°F84°F83°F83°F82°F82°F81°F81°F81°F82°F83°F84°F85°F86°F86°F86°F86°F87°F87°F87°F86°F85°F85°F84°F83°F82°F82°F82°F81°F81°F81°F81°F
Feels Like 89°F88°F89°F90°F91°F91°F91°F92°F92°F92°F92°F91°F91°F91°F90°F89°F88°F89°F88°F88°F87°F86°F85°F85°F86°F87°F88°F90°F91°F91°F91°F92°F92°F92°F93°F93°F92°F91°F92°F90°F89°F87°F88°F88°F86°F86°F85°F85°F
Cloudiness 0%5%18%25%33%39%33%46%45%47%52%59%100%100%86%83%81%84%98%88%92%94%95%96%100%100%100%100%100%100%94%97%98%99%99%99%88%88%92%94%90%91%95%94%96%97%93%90%
Visibility 6 mi6 mi6 mi6 mi6 mi6 mi6 mi6 mi6 mi6 mi6 mi6 mi6 mi6 mi6 mi6 mi6 mi6 mi6 mi6 mi6 mi6 mi6 mi6 mi6 mi6 mi6 mi6 mi6 mi6 mi6 mi6 mi6 mi6 mi6 mi6 mi6 mi6 mi6 mi6 mi6 mi5 mi6 mi6 mi6 mi6 mi6 mi6 mi
Precipitation 38%40%57%63%70%79%65%56%45%45%38%43%29%76%81%89%89%89%33%9%1%0%5%14%45%53%64%68%68%75%46%40%36%36%32%43%48%56%74%94%73%86%52%51%48%47%54%58%
Humidity 76%74%71%67%63%59%59%57%58%59%60%60%60%61%61%63%64%67%68%69%71%73%74%74%73%71%69%66%63%61%60%61%60%60%61%62%64%65%66%68%70%73%72%73%74%75%77%76%
Dew Point 74°F73°F73°F72°F71°F70°F70°F70°F70°F70°F71°F71°F71°F71°F70°F70°F71°F71°F72°F72°F72°F72°F72°F72°F72°F72°F72°F71°F71°F71°F71°F71°F71°F71°F72°F72°F72°F72°F72°F73°F73°F73°F73°F73°F73°F73°F73°F73°F
Pressure 30.09"30.09"30.09"30.09"30.09"30.06"30.06"30.03"30.03"30"30"30.03"30.03"30.03"30.06"30.06"30.03"30.03"30"30"30"30"30.03"30.03"30.06"30.06"30.06"30.06"30.06"30.06"30.03"30.03"30"30"30"30.03"30.03"30.03"30.03"30.06"30.06"30.03"30.03"30.03"30.03"30.03"30.06"30.06"
Wind Speed 8 mph7.9 mph6.4 mph5.6 mph6.3 mph7.7 mph8.6 mph9.2 mph9.4 mph9.5 mph9 mph7.6 mph6.4 mph5.8 mph3.4 mph2.3 mph4 mph6.6 mph7.3 mph7.6 mph8.5 mph9.1 mph8.2 mph8 mph6.4 mph5.4 mph5.3 mph3.9 mph4 mph5.2 mph6.8 mph8.5 mph9.1 mph9.3 mph9.7 mph7.9 mph6 mph5.8 mph9.4 mph10.4 mph9 mph6.5 mph7.2 mph10.2 mph11.1 mph10.6 mph9.5 mph9.3 mph
Wind
Direction
138°
SE
145°
SE
158°
SSE
181°
S
210°
SSW
228°
SW
238°
WSW
242°
WSW
248°
WSW
250°
WSW
255°
WSW
267°
W
282°
WNW
323°
NW
359°
N
98°
E
131°
SE
164°
SSE
171°
S
163°
SSE
157°
SSE
153°
SSE
146°
SE
148°
SSE
149°
SSE
142°
SE
138°
SE
158°
SSE
188°
S
219°
SW
234°
SW
244°
WSW
263°
W
279°
W
287°
WNW
309°
NW
332°
NNW
27°
NNE
39°
NE
48°
NE
67°
ENE
92°
E
121°
ESE
139°
SE
143°
SE
145°
SE
141°
SE
139°
SE

Daily Forecast

Date High Low Precip. Humidity
Today
Jul 1

Rain
87 °F
81 °F
100%
63%
Saturday
Jul 2

Rain
87 °F
81 °F
89%
63%
Sunday
Jul 3

Rain
88 °F
81 °F
94%
60%
Monday
Jul 4

Rain
87 °F
81 °F
71%
59%
Tuesday
Jul 5

Rain
88 °F
81 °F
61%
57%
Wednesday
Jul 6

Rain
88 °F
82 °F
79%
62%
Thursday
Jul 7

Rain
89 °F
83 °F
70%
62%
Friday
Jul 8

Rain
88 °F
82 °F
45%
64%
Saturday
Jul 9

Rain
85 °F
83 °F
84%
66%
Sunday
Jul 10

Rain
84 °F
82 °F
100%
70%
Monday
Jul 11

Rain
87 °F
81 °F
55%
65%
Tuesday
Jul 12

Rain
87 °F
81 °F
93%
58%
Wednesday
Jul 13

Rain
88 °F
81 °F
96%
62%
Thursday
Jul 14

Rain
88 °F
83 °F
80%
60%
Friday
Jul 15

Rain
88 °F
84 °F
24%
60%
Saturday
Jul 16

Clouds
87 °F
84 °F
25%
63%

Temperature 8-14 Day Outlook



Precipitation 8-14 Day Outlook




Quick Links
Tampa News
Tampa Photos
Tampa Videos




About Us
Contact Us
Site Map
Search Site
Advertise With Us
   
Tampa.USGulf.info
THE TAMPA WEBSITE

Copyright 2022, Coastal Town
Privacy    |    Legal